TimeHST,TemperatureF,Dew PointF,Humidity,Sea Level PressureIn,VisibilityMPH,Wind Direction,Wind SpeedMPH,Gust SpeedMPH,PrecipitationIn,Events,Conditions,WindDirDegrees,DateUTC
12:56 AM,68.0,65.8,93,29.99,10.0,NE,5.8,-,N/A,,Clear,40,2012-10-16 10:56:00
1:56 AM,65.8,63.9,93,30.00,10.0,Calm,Calm,-,N/A,,Clear,0,2012-10-16 11:56:00
2:56 AM,65.8,64.9,97,29.99,10.0,NNE,3.5,-,N/A,,Clear,30,2012-10-16 12:56:00
3:56 AM,66.9,63.9,90,29.97,10.0,North,4.6,-,N/A,,Clear,360,2012-10-16 13:56:00
4:56 AM,68.9,64.9,87,29.97,10.0,ENE,6.9,-,N/A,,Clear,60,2012-10-16 14:56:00
5:56 AM,68.9,64.9,87,29.98,10.0,NE,8.1,-,N/A,,Clear,50,2012-10-16 15:56:00
6:56 AM,68.0,63.9,87,29.99,10.0,East,4.6,-,N/A,,Clear,90,2012-10-16 16:56:00
7:56 AM,72.9,68.0,85,30.01,10.0,SE,3.5,-,N/A,,Clear,130,2012-10-16 17:56:00
8:56 AM,75.9,66.9,74,30.01,10.0,Calm,Calm,-,N/A,,Partly Cloudy,0,2012-10-16 18:56:00
9:21 AM,75.2,66.2,73,30.08,10.0,Calm,Calm,-,N/A,,Mostly Cloudy,0,2012-10-16 19:21:00
9:56 AM,74.8,65.8,73,30.02,10.0,Calm,Calm,-,N/A,,Mostly Cloudy,0,2012-10-16 19:56:00
10:26 AM,75.2,66.2,73,30.08,10.0,Calm,Calm,-,N/A,,Scattered Clouds,0,2012-10-16 20:26:00
10:56 AM,77.9,66.9,69,30.01,10.0,Calm,Calm,-,N/A,,Scattered Clouds,0,2012-10-16 20:56:00
11:40 AM,77.0,66.2,69,30.05,10.0,Calm,Calm,-,N/A,,Mostly Cloudy,0,2012-10-16 21:40:00
11:56 AM,77.0,65.8,68,29.99,10.0,Calm,Calm,-,N/A,,Mostly Cloudy,0,2012-10-16 21:56:00
12:15 PM,77.0,66.2,69,30.04,10.0,Calm,Calm,-,N/A,,Mostly Cloudy,0,2012-10-16 22:15:00
12:38 PM,78.8,66.2,65,30.03,10.0,Calm,Calm,-,N/A,,Scattered Clouds,0,2012-10-16 22:38:00
12:56 PM,77.9,65.8,66,29.97,10.0,Calm,Calm,-,N/A,,Scattered Clouds,0,2012-10-16 22:56:00
1:47 PM,78.8,66.2,65,30.01,10.0,West,3.5,-,N/A,,Mostly Cloudy,260,2012-10-16 23:47:00
1:56 PM,77.9,65.8,66,29.96,10.0,West,4.6,-,N/A,,Mostly Cloudy,260,2012-10-16 23:56:00
2:56 PM,82.9,66.9,58,29.94,10.0,West,5.8,-,N/A,,Mostly Cloudy,280,2012-10-17 00:56:00
3:07 PM,82.4,66.2,58,30.00,10.0,Calm,Calm,-,N/A,,Scattered Clouds,0,2012-10-17 01:07:00
3:56 PM,79.0,66.9,66,29.94,10.0,Variable,4.6,-,N/A,,Mostly Cloudy,0,2012-10-17 01:56:00
4:56 PM,75.2,64.4,69,30.01,10.0,NNE,5.8,-,N/A,,Mostly Cloudy,20,2012-10-17 02:56:00
5:03 PM,75.2,64.4,69,30.01,10.0,NNE,3.5,-,N/A,,Mostly Cloudy,20,2012-10-17 03:03:00
6:28 PM,71.6,64.4,78,30.03,10.0,NNE,8.1,-,N/A,,Mostly Cloudy,30,2012-10-17 04:28:00
6:36 PM,71.6,64.4,78,30.03,10.0,NNE,6.9,-,N/A,,Scattered Clouds,20,2012-10-17 04:36:00
7:56 PM,70.9,64.9,81,29.98,10.0,Calm,Calm,-,N/A,,Clear,0,2012-10-17 05:56:00
8:56 PM,68.9,63.9,84,29.99,10.0,East,3.5,-,N/A,,Clear,90,2012-10-17 06:56:00
9:56 PM,66.9,63.0,87,30.00,10.0,Calm,Calm,-,N/A,,Partly Cloudy,0,2012-10-17 07:56:00
10:56 PM,66.9,63.9,90,29.99,10.0,Calm,Calm,-,N/A,,Clear,0,2012-10-17 08:56:00
11:56 PM,66.9,64.9,93,29.98,10.0,Calm,Calm,-,N/A,,Partly Cloudy,0,2012-10-17 09:56:00